Hourly Data Report for September 09, 2017

All times are specified in Local Standard Time (LST). Add 1 hour to adjust for Daylight Saving Time where and when it is observed.

ARCTIC BAY CS
NUNAVUT

72°59'34.000" N
85°00'44.000" W
10.00 m
2400404
71592
XAT

Download Data

Hourly Data (September 2017)
Hourly Data Report for September 9, 2017
Temp Definition
°C
Dew Point Temp Definition
°C
Rel Hum Definition
%
Wind Dir Definition
10's deg

Wind Spd Definition
km/h
Visibility Definition
km
Stn Press Definition
kPa
Hmdx Definition


Wind Chill Definition


Weather Definition


TIME
00:00 -3.3 -5.0 88 36 4   98.55   -5 LegendNANA
01:00 -1.7 -3.3 89 32 10   98.51   -5 LegendNANA
02:00 -0.7 -1.9 92 30 11   98.46   -4 LegendNANA
03:00 0.4 -2.0 84 33 21   98.43     LegendNANA
04:00 0.8 -1.9 82 33 22   98.43     LegendNANA
05:00 1.4 -1.8 79 33 31   98.45     LegendNANA
06:00 1.0 -2.2 79 35 41   98.44     LegendNANA
07:00 1.2 -2.3 78 35 47   98.47     LegendNANA
08:00 1.6 -3.3 70 35 51   98.52     LegendNANA
09:00 1.1 -3.4 72 33 42   98.57     LegendNANA
10:00 0.6 -3.4 75 34 50   98.62     LegendNANA
11:00 0.4 -3.9 73 35 53   98.76     LegendNANA
12:00 0.2 -4.1 73 34 52   98.82     LegendNANA
13:00 0.1 -3.9 75 34 52   98.87     LegendNANA
14:00 0.2 -3.9 74 34 62   98.90     LegendNANA
15:00 0.4 -4.1 72 34 61   99.02     LegendNANA
16:00 0.6 -4.1 71 34 54   99.12     LegendNANA
17:00 0.6 -4.0 71 35 49   99.29     LegendNANA
18:00 0.0 -4.4 72 34 48   99.39   -8 LegendNANA
19:00 -0.5 -5.4 69 33 46   99.54   -9 LegendNANA
20:00 -0.9 -5.3 72 33 35   99.70   -8 LegendNANA
21:00 -1.5 -5.8 72 32 43   99.74   -10 LegendNANA
22:00 -2.3 -6.3 74 34 47   99.69   -11 LegendNANA
23:00 -2.5 -6.2 76 33 43   99.77   -11 LegendNANA

Notes on Data Quality.

Legend

  • E = Estimated
  • M = Missing
  • NA = Not Available
  • ‡ = Partner data that is not subject to review by the National Climate Archives
Date modified: